Find Starlink 37457

NORAD ID: 100294 Int'l Des: 2026-183 Owner: SPXS Country: US Constellation: starlink operational

Current View

Loading 3D Globe...

About Starlink 37457

Starlink 37457 (NORAD 100294) is a starlink constellation satellite launched Aug 11, 2026 by SPXS of US. with a mass of 575.00 kg.

Upcoming Passes

Passes for default location (London). Set your location on the main map for personalized predictions.

Altitude History

Loading altitude history...

Two-Line Element Set

1 A0294U 26183Y 26262.97813660 .00019947 00000-0 36543-3 0 9997
2 A0294 53.1596 260.5312 0001664 90.6104 269.5096 15.49335995 6211
Epoch: Sep 19, 2026 • Age: 17 hours

Current Status

Altitude 420.4 km
Apogee / Perigee N/A
Velocity 7.66 km/s
Sub-Earth Point 34.83°N, 38.24°E
Launch Date Aug 11, 2026
Age 0.1 years
Type internet

Technical Details

Classification Payload
Mass 575.00 kg
Dry Mass 530.00 kg
Length 0.30 m
Span 29.00 m
Shape ? Box + pan
Manufacturer SPXS
Bus Type Starlink V2MO
Phase Status In Orbit
Owner/State SPXS/US

Most Searched